Location: Bacea
(45.9500°N, 22.6667°E)
Time: 22:08:59
(UTC+00:00)

Cosmos 1300 - Pass Details

Date: 01 June 2022
Orbit: 506 x 508 km, 82.5° (Epoch: 01 July)

Event Time Altitude Azimuth Distance (km) Brightness Sun altitude
Rises 22:54:03 0° 346° (NNW) 2,622 7.5 -21.6°
Reaches altitude 10° 22:56:13 10° 341° (NNW) 1,731 6.2 -21.6°
Enters shadow 22:59:47 49° 272° (W) 662 3.1 -21.5°
